Flag for France Weather past 2 weeks in Le Havre, France

57 °F


Feels Like: 52 °F
Forecast: 48 / 60 °F
Wind: 24 mph from Southwest

Location: La Heve

Current Time: Oct 7, 2015 at 8:49:18 AM

Latest Report: Oct 7, 2015 at 8:00 AM

Visibility: N/A

Pressure: 29.80 "Hg

Humidity: 77%

Dew point: 50 °F

Location of Le HavreLocation

Historic Weather in Le Havre — Graph


Le Havre temperature yesterday

Maximum temperature yesterday: 66 °F (at 3:00 PM)
Minimum temperature yesterday: 57 °F (at 10:00 PM)
Average temperature yesterday: 61 °F

Past Weeks' High & Low Weather Summary

High66 °F (Oct 2, 2:30 PM)100% (Oct 3, 4:00 AM)30.54 "Hg (Oct 3, 4:00 AM)
Low43 °F (Oct 4, 8:30 AM)43% (Sep 29, 4:00 PM)29.45 "Hg (Oct 6, 8:30 AM)
Average56 °F76%30.09 "Hg
* Reported Sep 22 7:00 AM — Oct 7 7:30 AM, Le Havre, Weather by CustomWeather, © 2015

Note: Actual official high and low records may vary slightly from our data, if they occured in-between our weather recording intervals... More about our weather records


Le Havre weather history for previous 24 hours

Time TempWeatherWind HumidityBarometerVisibility
7:30 AM
Wed, Oct 7
57 °FOvercast.23 mph77%29.80 "HgN/A
7:00 AM57 °FOvercast.24 mph77%29.77 "HgN/A
6:30 AM57 °FOvercast.23 mph82%29.77 "HgN/A
6:00 AM57 °FLow clouds.23 mph82%29.74 "HgN/A
5:30 AM55 °FMostly cloudy.23 mph94%29.74 "HgN/A
5:00 AM55 °FLow clouds.25 mph94%29.74 "HgN/A
4:30 AM55 °FDrizzle. Mostly cloudy.23 mph94%29.71 "HgN/A
4:00 AM57 °FLow clouds.24 mph94%29.71 "HgN/A
3:30 AM57 °FLow clouds.26 mph88%29.68 "HgN/A
3:00 AM57 °FLow clouds.25 mph94%29.68 "Hg4 mi
2:30 AM57 °FLow clouds.24 mph100%29.65 "HgN/A
2:00 AM57 °FLow clouds.16 mph100%29.65 "HgN/A
1:30 AM57 °FLow clouds.16 mph94%29.62 "HgN/A
1:00 AM57 °FLow clouds.18 mph94%29.62 "HgN/A
12:30 AM57 °FLow clouds.16 mph94%29.62 "HgN/A
12:00 AM57 °FLow clouds.17 mph94%29.62 "HgN/A
11:30 PM
Tue, Oct 6
57 °FMostly cloudy.18 mph94%29.59 "HgN/A
11:00 PM57 °FMostly cloudy.20 mph88%29.59 "HgN/A
10:30 PM57 °FOvercast.18 mph88%29.56 "HgN/A
10:00 PM57 °FOvercast.20 mph88%29.56 "HgN/A
9:30 PM59 °FMostly cloudy.21 mph88%29.56 "HgN/A
9:00 PM59 °FMostly cloudy.22 mph82%29.53 "HgN/A
8:30 PM59 °FOvercast.21 mph88%29.53 "HgN/A
8:00 PM61 °FBroken clouds.22 mph83%29.53 "HgN/A
7:30 PM63 °FPartly sunny.15 mph77%29.50 "HgN/A
7:00 PM63 °FMostly cloudy.14 mph77%29.47 "HgN/A
6:30 PM63 °FBroken clouds.16 mph73%29.47 "HgN/A
6:00 PM63 °FBroken clouds.17 mph73%29.47 "HgN/A
5:30 PM63 °FPartly sunny.17 mph77%29.45 "HgN/A
5:00 PM61 °FRain. Broken clouds.12 mph88%29.47 "HgN/A
4:30 PM63 °FMore clouds than sun.16 mph73%29.45 "HgN/A
4:00 PM64 °FBroken clouds.15 mph73%29.45 "HgN/A
3:30 PM66 °FPassing clouds.14 mph68%29.45 "HgN/A
3:00 PM66 °FPartly sunny.13 mph68%29.45 "HgN/A
2:30 PM64 °FSunny.14 mph73%29.45 "Hg10 mi
2:00 PM64 °FScattered clouds.14 mph73%29.47 "HgN/A
1:30 PM63 °FBroken clouds.15 mph77%29.47 "HgN/A
1:00 PM63 °FBroken clouds.9 mph83%29.47 "HgN/A
12:30 PM61 °FBroken clouds.12 mph88%29.47 "HgN/A
12:00 PM63 °FBroken clouds.10 mph83%29.47 "HgN/A
11:30 AM61 °FBroken clouds.9 mph83%29.47 "HgN/A
11:00 AM61 °FCool.13 mph77%29.47 "HgN/A
10:30 AM61 °FCool.9 mph83%29.47 "HgN/A
10:00 AM61 °FBroken clouds.7 mph88%29.47 "HgN/A
9:30 AM61 °FPassing clouds.9 mph88%29.47 "HgN/A
9:00 AM61 °FClear.8 mph88%29.47 "Hg10 mi
8:30 AM61 °FClear.8 mph88%29.45 "Hg10 mi
8:00 AM61 °FMostly cloudy.10 mph94%29.47 "HgN/A
Weather by CustomWeather, © 2015

See weather overviewHow to use our weather pages